Temperature
13 13 13 12 12 12 12 12 11 11 11 11 11 11 11 11 11 11 11 11 10 10 10 10 10 10 10 10 10 10 10 10 10 10 10 10 10 10
13 13 13 12 12 12 12 12 11 11 11 11 11 11 11 11 11 10 10 10 10 10 10 10 10 10 10 10 10 10 10 10 10 10 10 10 10 10
13 13 13 12 12 12 12 12 11 11 11 11 11 11 11 11 11 10 10 10 10 10 10 10 10 10 10 10 10 10 10 10 10 10 10 10 10 10
13 12 12 12 12 12 12 11 11 11 11 11 11 11 11 10 10 10 10 10 10 10 10 10 10 10 10 10 10 10 10 10 10 10 10 10 10 10
12 12 12 12 12 12 12 11 11 11 11 11 11 10 10 10 10 10 10 10 10 10 9 9 9 9 9 9 9 9 9 9 9 9 9 9 9 9
12 12 12 12 12 11 11 11 11 11 11 10 10 10 10 10 10 10 10 10 10 9 9 9 9 9 9 9 9 9 9 9 9 9 9 9 9 9
12 12 12 11 11 11 11 11 11 11 11 10 10 10 10 10 10 10 10 9 9 9 9 9 9 9 9 9 9 9 9 9 9 9 9 9 9 9
11 11 11 11 11 11 11 11 11 10 10 10 10 10 10 10 9 9 9 9 9 9 9 9 8 8 9 9 9 8 8 9 8 8 8 8 8 8
11 11 11 11 11 11 11 10 10 10 10 10 10 10 10 10 9 9 9 9 9 8 8 8 8 8 8 8 8 8 8 8 8 8 8 8 8 8
11 11 11 11 11 10 10 10 10 10 10 10 10 9 9 9 9 9 9 8 8 8 8 8 8 8 8 8 8 8 8 8 8 8 8 8 8 8
10 10 10 10 10 10 10 10 10 10 10 10 9 9 9 9 9 9 8 8 8 8 8 8 8 8 8 8 8 8 8 8 7 7 7 7 7 7
10 10 10 10 10 9 9 9 9 9 9 9 9 9 9 9 9 8 8 8 8 7 8 7 8 7 7 8 8 7 7 7 7 7 7 7 7 7
9 9 9 9 9 9 9 9 9 9 9 9 9 9 9 9 8 8 8 8 7 7 7 7 7 7 7 7 7 7 7 7 7 7 7 7 7 6
9 9 9 9 9 9 9 8 8 8 9 8 8 8 8 8 8 8 8 7 7 7 7 7 7 7 7 6 6 7 7 6 6 6 6 6 6 6
8 8 8 8 8 8 8 8 8 8 8 8 8 8 8 8 8 8 7 7 7 7 7 7 6 6 6 6 6 6 6 6 6 6 6 6 6 6
8 8 8 8 8 8 8 7 7 7 7 7 7 7 7 7 7 7 7 7 7 7 6 6 6 6 6 6 6 6 6 5 6 6 6 6 6 6
7 7 7 7 7 7 7 7 7 7 7 7 7 7 7 7 7 7 6 6 6 6 6 6 6 6 6 5 5 5 5 5 5 5 5 5 6 5
6 7 7 7 7 7 7 7 6 6 6 6 6 6 6 6 6 6 6 6 5 5 5 5 5 5 5 5 5 5 5 5 5 5 5 5 5 5
6 6 6 6 6 6 6 6 6 6 6 6 6 6 6 6 5 5 5 5 5 5 5 5 5 5 4 4 5 5 5 5 5 5 4 4 5 5
6 6 6 6 6 6 6 6 6 6 5 5 5 5 5 5 5 5 5 5 5 5 5 4 4 4 4 4 4 4 4 4 4 4 4 4 4 4
5 5 5 6 6 5 5 5 5 5 5 5 5 5 5 5 5 5 4 4 4 4 4 4 4 4 4 3 3 4 4 4 4 3 3 3 4 4
5 5 5 5 5 5 5 5 5 5 5 5 4 4 4 4 4 4 4 4 4 4 4 4 4 3 3 3 3 3 3 4 4 3 3 3 3 3
4 4 4 4 5 5 5 5 5 4 4 4 4 4 4 4 4 4 3 3 3 3 3 3 3 3 3 3 3 3 3 3 3 3 3 3 3 3
Wind_Speed
3 3 2 2 2 2 2 3 3 1 2 2 2 2 2 2 3 3 3 4 4 5 5 5 4 3 2 3 3 4 5 6 7 7 7 7 7 7
2 3 2 1 2 2 2 2 2 3 2 3 2 2 2 2 3 3 3 4 4 4 5 4 4 3 2 2 3 3 4 5 6 7 8 9 8 7
2 3 3 3 2 2 2 2 2 2 3 3 2 1 1 2 3 2 2 2 2 4 4 4 3 3 3 2 3 3 3 4 5 6 7 8 8 8
3 3 3 3 3 3 3 3 3 3 3 3 2 1 2 2 2 2 2 2 2 3 4 4 3 3 3 3 3 3 3 4 5 5 6 8 8 8
4 4 4 4 4 3 3 3 3 2 2 2 2 1 1 1 1 2 2 2 2 3 3 4 4 3 3 4 3 3 3 4 4 5 6 7 7 8
3 4 4 5 5 5 4 4 3 2 2 2 1 1 1 1 1 1 2 1 2 2 3 3 4 4 4 4 4 3 4 4 4 4 5 7 7 8
2 3 3 4 5 4 3 4 4 3 2 2 2 1 1 0 1 1 1 1 2 1 2 2 2 3 4 5 4 4 4 4 5 5 5 6 7 7
3 3 3 3 4 5 5 5 5 5 4 3 3 3 3 3 2 1 1 0 2 1 1 2 1 2 3 3 4 4 4 5 5 5 6 6 6 6
3 3 2 2 2 2 3 3 4 5 6 5 5 5 4 5 4 2 2 2 2 1 0 2 1 2 3 4 4 4 5 5 5 5 6 6 5 5
3 3 3 2 2 2 2 1 2 3 5 4 5 5 4 4 5 4 4 2 0 1 1 1 1 2 3 4 4 4 4 4 5 4 4 5 5 4
2 2 3 2 2 1 2 2 2 2 3 3 4 3 3 4 5 3 2 1 1 1 1 1 1 2 2 2 4 4 3 4 4 4 4 4 4 4
2 2 2 2 3 2 2 2 2 3 1 0 0 0 0 2 5 4 4 3 1 2 2 2 1 0 2 2 2 3 3 4 4 4 4 4 4 2
2 2 2 3 3 3 2 3 3 2 2 2 1 0 0 0 1 2 3 3 3 3 3 3 2 1 1 2 2 2 2 3 3 3 4 5 4 2
3 3 3 4 4 4 2 2 2 1 2 2 1 1 1 2 2 2 2 2 2 3 4 4 3 3 2 2 3 2 2 2 2 3 3 4 4 4
3 3 3 3 3 2 3 3 2 2 2 2 2 2 2 2 1 1 0 0 1 2 1 3 3 3 3 3 3 2 2 2 3 3 3 3 3 3
2 2 2 2 1 1 1 2 2 2 3 3 2 2 1 1 1 1 1 1 0 2 2 2 3 4 3 4 4 4 3 2 2 3 3 3 4 4
1 1 1 1 1 1 1 1 2 2 2 2 2 1 1 1 1 1 1 1 2 2 2 2 1 2 3 3 3 4 4 3 3 3 2 4 4 4
2 2 2 3 3 3 3 2 2 2 3 2 2 2 2 2 2 1 1 2 3 3 3 2 0 1 1 2 5 5 4 4 3 3 3 3 5 4
2 2 2 3 3 3 3 3 3 3 3 3 3 3 3 3 2 2 2 3 3 3 3 2 2 2 3 4 3 5 4 3 3 3 3 4 5 5
2 3 3 3 3 3 3 3 3 2 2 3 3 3 3 3 3 3 3 4 4 3 3 3 3 4 5 5 4 4 6 5 4 4 4 3 4 5
3 3 3 3 3 3 3 3 2 3 3 2 3 3 3 3 4 4 4 5 4 4 4 5 5 5 2 1 3 4 4 6 6 4 3 3 3 3
3 3 3 3 3 3 3 2 2 2 3 3 3 3 3 3 4 5 4 4 4 5 5 4 3 2 2 4 5 5 5 4 4 5 5 5 3 3
3 3 3 3 3 3 2 3 3 3 3 3 3 3 3 3 4 4 4 4 4 4 4 3 2 2 3 4 5 5 5 5 3 3 4 6 7 8
Wind_Direction
180 176 173 185 175 172 158 158 158 207 269 270 285 306 300 297 315 338 337 346 360 2 0 358 357 2 15 25 24 23 18 12 9 3 358 353 351 350
177 171 180 188 171 164 168 166 166 175 221 247 245 278 300 295 316 326 316 334 346 356 359 3 8 2 359 10 12 10 7 7 5 3 5 1 354 346
188 184 202 186 180 179 170 165 172 165 209 261 261 289 289 308 327 331 316 324 330 347 354 358 5 12 10 358 354 352 355 357 358 360 358 354 352 351
207 194 209 195 192 192 185 191 196 189 191 234 261 268 272 290 308 323 331 321 311 336 350 352 348 357 354 348 339 335 340 344 345 347 344 341 344 345
210 205 209 190 205 206 197 200 203 196 190 196 238 249 276 328 346 334 344 341 321 320 331 338 338 335 339 340 334 322 327 333 337 342 341 340 342 346
227 219 208 205 209 203 203 206 193 181 170 178 210 245 268 329 31 341 335 333 325 331 325 325 331 337 333 331 332 329 329 327 326 328 334 335 336 340
247 241 228 219 215 204 205 199 183 184 178 182 198 207 243 268 259 243 262 309 311 326 336 328 329 332 325 317 311 315 321 323 322 321 326 328 330 335
239 250 242 219 221 221 220 203 187 183 190 191 203 213 232 224 212 204 189 69 293 306 299 302 322 304 302 300 308 315 320 321 322 325 325 321 322 330
222 224 233 226 211 216 226 220 219 215 196 188 197 218 219 212 186 193 204 216 235 257 212 275 290 287 293 295 297 304 312 314 316 319 323 321 317 324
218 214 218 223 211 197 193 201 236 242 229 215 208 219 222 203 191 195 201 196 244 304 153 238 274 277 297 293 296 300 304 303 304 312 320 328 333 334
237 225 215 214 225 184 166 192 238 275 266 226 225 225 212 186 160 136 139 141 244 252 205 199 242 280 287 282 296 304 303 304 300 308 316 326 332 339
244 241 231 215 207 189 179 185 215 246 226 198 202 294 156 174 176 175 179 180 194 232 217 188 205 289 301 288 305 317 311 311 306 304 309 312 319 334
223 229 229 219 217 212 201 200 216 209 182 176 174 170 90 125 195 201 194 191 199 222 204 177 184 199 229 286 303 297 296 305 306 305 307 302 298 287
226 229 228 219 216 220 216 211 202 140 147 153 168 218 218 227 231 216 219 224 228 226 206 185 186 194 202 256 280 299 304 292 285 292 297 297 291 283
235 241 240 222 207 209 211 197 179 160 165 189 213 234 234 227 195 160 133 75 3 330 227 211 199 197 200 224 246 255 288 294 276 281 290 283 273 273
242 246 247 218 195 199 204 209 203 193 193 210 224 229 200 178 193 190 193 205 287 319 329 271 219 196 216 234 234 247 252 262 283 284 286 282 280 267
205 158 174 185 196 213 217 218 202 195 210 210 201 210 209 207 225 207 194 183 202 247 289 315 312 263 240 224 237 249 252 259 262 269 274 285 281 272
150 187 210 216 221 222 224 229 218 216 217 210 203 203 212 219 227 222 211 208 224 242 250 249 248 358 335 286 231 236 249 256 266 263 258 267 283 283
173 208 222 232 234 229 225 224 233 230 217 209 212 213 211 216 221 227 227 227 237 245 250 237 218 210 256 279 272 228 236 261 266 262 259 258 269 277
203 217 231 237 235 230 229 235 237 229 218 217 217 217 213 216 225 228 229 234 238 243 249 242 228 225 230 246 264 272 248 244 244 257 271 278 281 289
231 235 238 239 240 234 232 231 230 229 228 221 221 222 218 217 228 231 233 241 240 241 244 249 247 251 245 233 270 278 271 251 244 251 253 269 286 291
244 245 246 242 237 233 230 224 223 226 224 227 231 231 226 223 230 234 236 236 238 239 245 253 251 238 222 238 259 272 282 291 280 269 253 235 229 240
252 251 249 246 241 235 231 231 231 233 231 230 233 236 233 235 236 234 236 238 242 245 250 255 252 241 243 244 257 269 274 281 289 293 288 279 263 263
Height
1532 1532 1532 1532 1532 1533 1532 1533 1533 1531 1530 1530 1530 1529 1529 1528 1527 1527 1526 1525 1524 1523 1522 1521 1520 1519 1519 1519 1518 1518 1518 1517 1517 1516 1515 1514 1513 1512
1529 1530 1530 1530 1531 1531 1531 1531 1531 1530 1529 1528 1528 1528 1527 1526 1526 1525 1524 1523 1522 1521 1520 1519 1519 1518 1518 1517 1517 1517 1516 1516 1515 1514 1514 1513 1511 1511
1527 1527 1527 1528 1528 1528 1528 1528 1528 1528 1527 1526 1526 1526 1525 1524 1524 1523 1522 1522 1521 1520 1519 1518 1517 1517 1516 1516 1515 1515 1515 1515 1514 1513 1512 1511 1510 1509
1524 1524 1525 1525 1526 1526 1526 1525 1525 1525 1525 1524 1524 1523 1523 1522 1522 1521 1521 1520 1519 1518 1518 1517 1516 1515 1515 1514 1514 1514 1513 1513 1512 1512 1511 1510 1509 1507
1520 1521 1522 1522 1522 1523 1523 1523 1523 1522 1522 1521 1521 1521 1521 1520 1519 1519 1518 1518 1517 1517 1516 1515 1514 1514 1513 1513 1512 1512 1512 1511 1511 1510 1509 1508 1507 1506
1517 1518 1518 1519 1519 1519 1519 1519 1520 1519 1519 1519 1518 1518 1518 1518 1517 1516 1516 1516 1515 1515 1514 1513 1513 1512 1511 1511 1510 1510 1510 1510 1509 1508 1507 1506 1505 1504
1514 1514 1515 1515 1516 1516 1516 1516 1516 1516 1516 1515 1515 1515 1515 1515 1514 1514 1514 1513 1513 1513 1512 1511 1511 1510 1509 1509 1509 1508 1508 1508 1507 1506 1505 1505 1504 1502
1510 1510 1511 1512 1512 1513 1513 1513 1513 1513 1512 1512 1512 1512 1512 1512 1512 1512 1511 1511 1510 1511 1510 1509 1509 1508 1507 1507 1507 1506 1506 1505 1505 1504 1503 1502 1502 1500
1506 1507 1507 1508 1508 1509 1509 1509 1509 1509 1510 1510 1509 1509 1509 1509 1509 1509 1509 1509 1508 1508 1507 1506 1506 1505 1505 1505 1505 1504 1504 1503 1503 1502 1501 1500 1499 1498
1502 1503 1503 1504 1504 1505 1505 1505 1505 1505 1506 1506 1506 1506 1506 1507 1507 1507 1506 1506 1505 1505 1505 1504 1504 1503 1503 1503 1503 1502 1502 1501 1500 1500 1499 1498 1497 1496
1499 1499 1500 1500 1500 1501 1501 1501 1501 1501 1502 1502 1502 1503 1503 1503 1503 1503 1503 1502 1502 1502 1502 1501 1501 1500 1500 1500 1500 1499 1499 1498 1498 1497 1496 1495 1494 1493
1495 1495 1496 1496 1496 1496 1497 1497 1497 1497 1498 1498 1498 1499 1499 1499 1500 1500 1500 1499 1499 1498 1498 1499 1498 1498 1497 1496 1497 1496 1495 1495 1494 1493 1493 1492 1491 1490
1490 1491 1491 1492 1492 1493 1493 1493 1493 1494 1494 1494 1494 1495 1495 1496 1496 1496 1497 1497 1496 1496 1496 1496 1495 1495 1494 1493 1493 1493 1492 1491 1490 1490 1489 1488 1488 1487
1486 1487 1487 1488 1488 1489 1489 1489 1490 1490 1490 1491 1491 1491 1491 1492 1492 1493 1493 1493 1493 1493 1493 1492 1492 1492 1491 1490 1489 1488 1488 1488 1487 1486 1486 1485 1485 1484
1483 1483 1484 1484 1484 1485 1485 1486 1486 1486 1486 1487 1487 1487 1488 1488 1489 1489 1489 1489 1490 1489 1489 1489 1488 1488 1488 1487 1485 1485 1484 1484 1484 1483 1482 1481 1481 1480
1479 1479 1480 1480 1481 1481 1482 1482 1482 1483 1483 1483 1483 1484 1484 1484 1485 1485 1485 1485 1485 1485 1485 1485 1485 1484 1483 1483 1482 1481 1481 1480 1480 1479 1478 1478 1477 1476
1475 1475 1475 1476 1476 1477 1477 1478 1478 1479 1479 1480 1480 1480 1480 1480 1480 1481 1481 1481 1481 1480 1480 1481 1481 1480 1480 1479 1478 1478 1477 1476 1476 1475 1474 1473 1473 1472
1471 1471 1471 1471 1472 1472 1473 1473 1474 1474 1475 1475 1476 1476 1476 1476 1476 1477 1477 1477 1476 1476 1477 1476 1476 1475 1475 1474 1475 1473 1473 1472 1472 1471 1470 1469 1468 1468
1467 1467 1467 1467 1468 1468 1469 1469 1469 1470 1471 1471 1471 1472 1472 1472 1472 1472 1472 1472 1472 1472 1472 1473 1472 1471 1470 1469 1469 1470 1469 1468 1467 1467 1466 1465 1464 1464
1463 1463 1463 1464 1464 1464 1465 1465 1465 1466 1466 1467 1467 1467 1468 1468 1468 1468 1468 1468 1467 1467 1467 1468 1468 1467 1466 1466 1465 1465 1465 1464 1463 1462 1462 1461 1460 1459
1459 1459 1460 1460 1460 1461 1461 1461 1461 1462 1462 1462 1462 1463 1463 1463 1464 1464 1464 1463 1463 1463 1463 1463 1463 1464 1463 1462 1461 1459 1460 1460 1459 1458 1457 1456 1455 1454
1455 1455 1455 1456 1456 1456 1457 1457 1457 1457 1457 1457 1458 1458 1458 1459 1459 1459 1459 1459 1459 1459 1458 1458 1459 1459 1458 1457 1456 1455 1454 1455 1454 1454 1453 1453 1451 1449
1451 1451 1451 1451 1452 1452 1452 1452 1452 1452 1453 1453 1453 1453 1453 1454 1454 1454 1454 1454 1454 1454 1453 1453 1453 1453 1453 1452 1451 1450 1450 1449 1449 1448 1448 1448 1448 1447